Regional Weather Roundup
Issued by NWS

Home | Current Version | Previous Version | Text Only | Print | Product List | Glossary Off
Versions: 1 2 3 4 5 6 7 8 9 10 11 12 13 14 15 16 17 18 19 20 21 22 23 24 25 26 27

000
ASUS45 KBOU 221907
RWRCO

WEATHER ROUNDUP FOR COLORADO
NATIONAL WEATHER SERVICE DENVER/BOULDER CO
100 PM MDT MON AUG 22 2016

NOTE: "FAIR" INDICATES FEW OR NO CLOUDS BELOW 12000 FEET WITH NO
SIGNIFICANT WEATHER AND/OR OBSTRUCTIONS TO VISIBILITY.

COZ001>005-013-030-031-222000-
...NORTHWEST COLORADO...

CITY           SKY/WX    TMP DP  RH WIND       PRES   REMARKS
CRAIG          FAIR      81  32  17 W9G17     30.09F
HAYDEN         FAIR      77  34  20 NW7       30.11F
MEEKER         FAIR      82  38  20 MISG      30.09F
MOUNT WERNER   NOT AVBL
STEAMBOAT SPGS FAIR      75  36  23 W8        30.14F
WALDEN         FAIR      70  32  24 SE8       30.22F
$$

COZ006>008-011-222000-
...WEST CENTRAL VALLEYS...

CITY           SKY/WX    TMP DP  RH WIND       PRES   REMARKS
GRAND JUNCTION FAIR      83  41  22 NW7       30.04F
MONTROSE       FAIR      78  42  27 N8        30.11F
EAGLE          SUNNY     81  36  19 S8G17     30.12F
RIFLE          FAIR      83  41  22 W14       30.05F
DELTA          FAIR      81  41  24 SW6       30.08F
NUCLA          FAIR      77  45  31 N7        30.19F
$$

COZ017>023-064>068-222000-
...SOUTHWEST COLORADO...

CITY           SKY/WX    TMP DP  RH WIND       PRES   REMARKS
DURANGO        PTSUNNY   63  52  67 CALM      30.24F
CORTEZ         FAIR      74  49  41 SW15      30.19F
PAGOSA SPRINGS PTSUNNY   65  46  51 CALM      30.28F
TELLURIDE      CLOUDY    57  42  57 NW6       30.36F
WOLF CREEK PAS PTSUNNY   46  43  87 SW16G24   30.53F
$$

COZ009-010-012-014-032>034-037-058>063-222000-
...CENTRAL COLORADO...

CITY           SKY/WX    TMP DP  RH WIND       PRES   REMARKS
ASPEN          PTSUNNY   73  35  25 NW7       30.20F
BUENA VISTA    FAIR      76  26  16 NW15G25   30.17F
COPPER MTN     CLOUDY    55  30  38 W6        30.52S
BERTHOUD PASS  PTSUNNY   48  34  57 MISG      30.54F
COTTONWOOD PAS PTSUNNY   70  23  17 CALM      30.32F THUNDER
GUNNISON       FAIR      72  41  33 SW10      30.22F
KREMMLING      FAIR      79  27  14 NE5       30.17F
LEADVILLE      FAIR      64  32  30 N13G20    30.34F
MONARCH PASS   PTSUNNY   52  36  54 SW7       30.59F THUNDER
SALIDA         FAIR      78  37  22 SW9       30.22F
SUNLIGHT       FAIR      63  39  42 NE3       30.46F
WILKERSON PASS NOT AVBL
$$

COZ069>075-222000-
...SAN LUIS VALLEY/SANGRE DE CRISTO MOUNTAINS...

CITY           SKY/WX    TMP DP  RH WIND       PRES   REMARKS
ALAMOSA        FAIR      69  44  40 S12       30.22F
LA VETA PASS   PTSUNNY   61  39  44 S15G23    30.36F
SAGUACHE       FAIR      68  46  45 S8        30.24F
$$

COZ035-036-038>040-222000-
...NORTHERN COLORADO FRONT RANGE...

CITY           SKY/WX    TMP DP  RH WIND       PRES   REMARKS
DENVER INTL AP PTSUNNY   90  31  12 N10G18    29.96F
DMNS CITY PARK   N/A     88  32  13 NW7G13    29.96F
AURORA         PTSUNNY   89  31  12 NE9       29.98F
FRONT RANGE AP NOT AVBL
ERIE MUNI ARPT FAIR      83  36  18 CALM      29.95F
BOULDER MUN AP FAIR      82  41  23 W3        29.97S
CENTENNIAL     PTSUNNY   88  31  13 NE9       29.99F
BROOMFIELD     PTSUNNY   84  36  17 CALM      30.00F
FORT COLLINS   FAIR      86  46  25 S13       29.91F
LONGMONT       FAIR      86  47  25 S3        29.96F
$$

COZ041-046-047-076>085-087-088-222000-
...PIKES PEAK/PALMER DIVIDE AND SOUTHERN FOOTHILLS...

CITY           SKY/WX    TMP DP  RH WIND       PRES   REMARKS
COLO. SPRINGS  FAIR      82  42  24 SE8       30.04F
A. F. ACADEMY  MOSUNNY   79  45  29 VRB5      30.05F
SCHRIEVER AFB  NOT AVBL
ELLICOTT       NOT AVBL
FALCON         FAIR      79  39  23 E6        30.10F
FORT CARSON    SUNNY     79  47  31 VRB3      30.01F
LIMON          FAIR      80  47  31 SE15G24   30.00F
MONUMENT HILL  PTSUNNY   75  36  23 N3        30.11S
TRINIDAD       FAIR      83  37  19 NW7       30.03F
$$

COZ042>045-048>051-090-091-222000-
...NORTHEAST COLORADO...

CITY           SKY/WX    TMP DP  RH WIND       PRES   REMARKS
GREELEY ARPT   FAIR      82  54  36 SE7       29.93F
AKRON          FAIR      84  48  28 S13       29.94F
BURLINGTON     FAIR      82  53  36 S26G37    29.97S
WRAY           FAIR      86  52  30 S16G24    29.91S
STERLING       FAIR      88  54  31 S10       29.87F
HOLYOKE        FAIR      91  54  27 S17G25    29.89F
FORT MORGAN    FAIR      91  45  20 SE8       29.92F
$$

COZ086-089-092>099-222000-
...SOUTHEAST COLORADO...

CITY           SKY/WX    TMP DP  RH WIND       PRES   REMARKS
PUEBLO         FAIR      85  46  25 S3        29.93F
LA JUNTA       FAIR      87  51  28 VRB5      29.91F
LAMAR          NOT AVBL
SPRINGFIELD      N/A     76  58  53 S30G40    30.01F
$$




USA.gov is the U.S. government's official web portal to all federal, state and local government web resources and services.